Big Delta, AK

5:11 PM AKDT on April 20, 2018 (GMT -0800)
Allen Army Air Field

Weather History for PABI - October, 2012

Change the Weather History Date:

Monday, October 29, 2012

  Actual Average Record
Temperature  
Mean Temperature 11 °F -  
Max Temperature 16 °F 20 °F 44 °F (2017)
Min Temperature 6 °F 9 °F -9 °F (2008)
Degree Days  
Heating Degree Days 54    
Moisture  
Dew Point 10 °F    
Average Humidity 85    
Maximum Humidity 93    
Minimum Humidity 76    
Precipitation  
Precipitation 0.08 in - - ()
Sea Level Pressure  
Sea Level Pressure 29.97 in    
Wind  
Wind Speed 4 mph (WSW)    
Max Wind Speed 8 mph    
Max Gust Speed -    
Visibility 4 miles    
Events Fog , Snow    
Averages and records for this station are not official NWS values.
T = Trace of Precipitation, MM = Missing Value Source: NWS Daily Summary

Daily Weather History Graph

Daily Weather History Graph

Search for Another Location

Airport or City:

Astronomy

Oct. 29, 2012 Rise Set
Actual Time 9:17 AM AKDT 5:33 PM AKDT
Civil Twilight 8:25 AM AKDT 6:26 PM AKDT
Nautical Twilight 7:29 AM AKDT 7:22 PM AKDT
Astronomical Twilight 6:34 AM AKDT 8:17 PM AKDT
Moon 5:10 PM AKDT (10/29) 9:33 AM AKDT (10/29)
Length of Visible Light 10h 00m
Length of Day
8h 16m
Full, 100% of the Moon is Illuminated
Oct 29
Full
Nov 6
Last Quarter
Nov 13
New
Nov 20
First Quarter
Nov 28
Full

Hourly Weather History & Observations

Time (AKDT) Temp. Windchill Dew Point Humidity Pressure Visibility Wind Dir Wind Speed Gust Speed Precip Events Conditions
12:53 AM 6.1 °F -0.9 °F 3.0 °F 87% 30.14 in 10.0 mi South 3.5 mph - N/A   Clear
1:53 AM 7.0 °F 0.1 °F 3.9 °F 87% 30.12 in 10.0 mi SSE 3.5 mph - N/A   Clear
2:53 AM 10.9 °F 4.7 °F 7.0 °F 84% 30.09 in 10.0 mi ESE 3.5 mph - N/A   Clear
3:53 AM 10.9 °F 4.7 °F 7.0 °F 84% 30.06 in 10.0 mi ESE 3.5 mph - N/A   Scattered Clouds
4:53 AM 10.9 °F 2.9 °F 8.1 °F 88% 30.05 in 10.0 mi East 4.6 mph - N/A   Scattered Clouds
5:53 AM 12.9 °F 1.6 °F 9.0 °F 84% 30.02 in 10.0 mi ESE 8.1 mph - N/A   Mostly Cloudy
6:53 AM 15.1 °F 9.4 °F 10.0 °F 80% 30.03 in 10.0 mi ESE 3.5 mph - N/A   Mostly Cloudy
7:53 AM 14.0 °F 8.2 °F 10.0 °F 84% 30.03 in 10.0 mi SE 3.5 mph - N/A   Mostly Cloudy
8:53 AM 12.0 °F 5.9 °F 9.0 °F 88% 30.03 in 10.0 mi SW 3.5 mph - N/A   Overcast
9:53 AM 12.0 °F 5.9 °F 9.0 °F 88% 30.04 in 5.0 mi WNW 3.5 mph - 0.00 in Snow Light Snow
10:03 AM 12.2 °F - 8.6 °F 85% 29.90 in 1.8 mi Calm Calm - 0.00 in Snow Light Snow
10:20 AM 12.2 °F - 8.6 °F 85% 29.90 in 1.5 mi Calm Calm - 0.00 in Snow Light Snow
10:36 AM 12.2 °F 6.1 °F 8.6 °F 85% 29.90 in 0.8 mi SW 3.5 mph - 0.01 in Snow Light Snow
10:46 AM 12.2 °F 6.1 °F 8.6 °F 85% 29.90 in 1.0 mi WSW 3.5 mph - 0.01 in Snow Light Snow
10:53 AM 12.0 °F 5.9 °F 9.0 °F 88% 30.04 in 1.0 mi SW 3.5 mph - 0.01 in Snow Light Snow
11:34 AM 12.2 °F 6.1 °F 10.4 °F 92% 29.90 in 1.0 mi WSW 3.5 mph - 0.01 in Snow Light Snow
11:53 AM 12.9 °F - 10.0 °F 88% 30.03 in 1.0 mi Calm Calm - 0.01 in Snow Light Snow
12:10 PM 14.0 °F - 10.4 °F 86% 29.90 in 1.2 mi Calm Calm - 0.01 in Snow Light Snow
12:22 PM 14.0 °F - 10.4 °F 86% 29.90 in 0.5 mi Calm Calm - 0.01 in Fog , Snow Snow
12:35 PM 14.0 °F - 10.4 °F 86% 29.90 in 0.8 mi Calm Calm - 0.02 in Snow Light Snow
12:49 PM 14.0 °F 6.5 °F 10.4 °F 86% 29.90 in 1.0 mi West 4.6 mph - 0.02 in Snow Light Snow
12:53 PM 14.0 °F 5.1 °F 10.9 °F 88% 30.03 in 1.2 mi West 5.8 mph - 0.03 in Snow Light Snow
1:01 PM 14.0 °F 5.1 °F 10.4 °F 86% 29.90 in 3.0 mi West 5.8 mph - 0.00 in Snow Light Snow
1:08 PM 14.0 °F 5.1 °F 10.4 °F 86% 29.90 in 4.0 mi West 5.8 mph - 0.00 in Snow Light Snow
1:28 PM 14.0 °F 5.1 °F 10.4 °F 86% 29.90 in 1.8 mi WNW 5.8 mph - 0.00 in Snow Light Snow
1:40 PM 15.8 °F 8.6 °F 10.4 °F 79% 29.90 in 0.8 mi West 4.6 mph - 0.00 in Snow Light Snow
1:53 PM 15.1 °F 5.2 °F 10.9 °F 84% 30.03 in 0.8 mi West 6.9 mph - 0.01 in Snow Light Snow
2:11 PM 15.8 °F 6.1 °F 10.4 °F 79% 29.90 in 0.8 mi West 6.9 mph - 0.00 in Snow Light Snow
2:25 PM 15.8 °F 6.1 °F 10.4 °F 79% 29.90 in 1.0 mi West 6.9 mph - 0.00 in Snow Light Snow
2:32 PM 15.8 °F 6.1 °F 10.4 °F 79% 29.90 in 3.0 mi West 6.9 mph - 0.01 in Snow Light Snow
2:53 PM 15.1 °F 6.4 °F 10.9 °F 84% 30.03 in 2.5 mi West 5.8 mph - 0.01 in Snow Light Snow
3:03 PM 15.8 °F 6.1 °F 12.2 °F 86% 29.91 in 1.2 mi WNW 6.9 mph - 0.00 in Snow Light Snow
3:43 PM 15.8 °F 6.1 °F 10.4 °F 79% 29.91 in 0.8 mi West 6.9 mph - 0.00 in Snow Light Snow
3:53 PM 15.1 °F 6.4 °F 10.9 °F 84% 30.03 in 0.8 mi West 5.8 mph - 0.01 in Snow Light Snow
4:18 PM 15.8 °F 6.1 °F 10.4 °F 79% 29.91 in 3.0 mi WNW 6.9 mph - 0.00 in Snow Light Snow
4:28 PM 15.8 °F 7.2 °F 10.4 °F 79% 29.91 in 2.5 mi WNW 5.8 mph - 0.00 in Snow Light Snow
4:53 PM 15.1 °F 6.4 °F 10.9 °F 84% 30.04 in 2.5 mi West 5.8 mph - 0.00 in Snow Light Snow
5:01 PM 14.0 °F 5.1 °F 10.4 °F 86% 29.92 in 4.0 mi West 5.8 mph - 0.00 in Snow Light Snow
5:53 PM 15.1 °F 5.2 °F 10.9 °F 84% 30.04 in 9.0 mi West 6.9 mph - 0.00 in Snow Light Snow
6:40 PM 15.8 °F 6.1 °F 10.4 °F 79% 29.92 in 3.0 mi West 6.9 mph - 0.00 in Snow Light Snow
6:50 PM 15.8 °F 8.6 °F 10.4 °F 79% 29.92 in 2.5 mi West 4.6 mph - 0.00 in Snow Light Snow
6:53 PM 15.1 °F 7.7 °F 10.9 °F 84% 30.04 in 2.5 mi West 4.6 mph - 0.00 in Snow Light Snow
7:08 PM 14.0 °F 8.2 °F 10.4 °F 86% 29.92 in 4.0 mi West 3.5 mph - 0.00 in Snow Light Snow
7:19 PM 14.0 °F 6.5 °F 10.4 °F 86% 29.92 in 2.0 mi SW 4.6 mph - 0.00 in Snow Light Snow
7:31 PM 14.0 °F 8.2 °F 12.2 °F 93% 29.92 in 4.0 mi SSW 3.5 mph - 0.00 in Snow Light Snow
7:50 PM 14.0 °F 8.2 °F 10.4 °F 86% 29.92 in 2.0 mi SW 3.5 mph - 0.01 in Snow Light Snow
7:53 PM 14.0 °F 8.2 °F 10.9 °F 88% 30.04 in 2.0 mi SSW 3.5 mph - 0.01 in Snow Light Snow
8:04 PM 15.8 °F - 12.2 °F 86% 29.92 in 3.0 mi Calm Calm - 0.00 in Snow Light Snow
8:13 PM 14.0 °F - 10.4 °F 86% 29.91 in 2.5 mi Calm Calm - 0.00 in Snow Light Snow
8:53 PM 14.0 °F 8.2 °F 12.0 °F 92% 30.04 in 2.5 mi SW 3.5 mph - 0.01 in Snow Light Snow
9:02 PM 14.0 °F 8.2 °F 12.2 °F 93% 29.91 in 3.0 mi SSW 3.5 mph - 0.00 in Snow Light Snow
9:14 PM 14.0 °F 8.2 °F 12.2 °F 93% 29.91 in 2.0 mi SW 3.5 mph - 0.00 in Snow Light Snow
9:44 PM 14.0 °F 5.1 °F 10.4 °F 86% 29.92 in 2.5 mi SSW 5.8 mph - 0.00 in Snow Light Snow
9:53 PM 14.0 °F 5.1 °F 10.9 °F 88% 30.04 in 2.5 mi SW 5.8 mph - 0.00 in Snow Light Snow
10:21 PM 15.8 °F 7.2 °F 12.2 °F 86% 29.92 in 4.0 mi WSW 5.8 mph - 0.01 in Snow Light Snow
10:53 PM 15.1 °F 9.4 °F 12.0 °F 88% 30.04 in 4.0 mi West 3.5 mph - 0.01 in Snow Light Snow
11:01 PM 15.8 °F 10.2 °F 12.2 °F 86% 29.92 in 2.5 mi WSW 3.5 mph - 0.00 in Snow Light Snow
11:12 PM 15.8 °F - 12.2 °F 86% 29.92 in 1.2 mi Calm Calm - 0.00 in Snow Light Snow
11:48 PM 15.8 °F - 12.2 °F 86% 29.93 in 2.0 mi Calm Calm - 0.01 in Snow Light Snow
11:53 PM 15.1 °F - 12.9 °F 91% 30.05 in 2.0 mi Calm Calm - 0.01 in Snow Light Snow